Theta_e
316 317 319 321 322 324 328 329 331 329 325 319 317 322 319 318 321 319 322 322 322 319 319 322 322 322 327 333 333 334 333 335 340 339 336 337 340 341 341 341 341 340 338 337 336 333 334 337 339 339 339 339 339 339 338 335 331 326 328 330 329 329 331 331 331 332 326 323 326 326 324 326 329 330 331 330 330 330 330 331 332 332 332 332 330 327 327 329 329 328 328 328 329 329 327 326 326
316 318 321 324 322 327 336 332 328 324 324 318 314 320 317 321 324 320 323 322 322 320 322 324 322 323 327 331 330 339 339 334 336 338 337 338 340 340 342 341 341 340 338 338 337 335 335 337 338 338 339 339 338 339 338 336 335 331 330 330 330 331 332 332 331 331 326 322 323 321 322 326 330 330 330 330 330 329 329 330 331 332 332 332 330 328 326 327 328 328 328 328 329 328 326 325 325
317 318 322 326 327 328 336 328 321 321 323 318 312 317 319 323 324 321 323 321 322 321 323 323 322 321 324 331 331 338 339 332 334 336 336 338 339 339 342 341 341 340 337 338 337 336 336 336 337 338 338 339 338 339 338 337 337 334 332 331 331 331 331 332 331 329 325 322 321 319 318 323 329 330 330 330 329 329 329 329 329 330 331 331 331 330 326 325 326 326 328 328 328 327 324 325 326
317 319 321 326 332 331 331 325 324 325 319 316 312 315 321 322 323 321 322 322 322 322 322 322 322 319 324 334 329 334 337 333 333 335 335 337 338 339 341 342 341 339 337 338 337 337 335 335 336 336 338 338 338 338 338 337 337 336 333 332 331 331 331 331 330 328 324 321 321 319 318 321 326 329 330 330 329 329 329 329 329 330 331 331 331 329 325 324 324 323 326 327 327 325 324 325 325
319 320 322 324 333 332 329 325 328 327 316 320 317 316 322 321 322 321 320 320 321 322 322 322 322 318 325 330 327 334 339 338 336 335 336 336 337 338 340 342 341 340 339 339 338 336 334 333 334 335 337 337 338 337 338 337 337 336 334 332 331 331 331 330 330 328 324 321 320 319 318 318 322 327 330 329 329 328 328 329 331 332 332 332 331 328 325 323 324 323 322 324 325 324 324 324 324
321 323 324 324 330 327 328 323 319 319 315 323 319 318 322 319 321 320 319 320 320 321 320 321 321 323 328 327 327 333 335 337 338 336 335 334 337 339 341 341 341 341 340 340 338 336 333 332 334 335 336 337 338 337 337 337 336 336 335 333 332 331 331 330 330 328 325 321 319 317 315 315 318 325 329 329 328 327 327 329 331 332 332 333 330 328 325 321 324 324 321 322 324 324 323 324 324
321 326 328 326 329 325 328 323 315 317 316 319 319 319 321 319 321 319 320 319 319 319 319 320 320 324 326 326 329 332 333 336 337 336 336 334 336 340 341 341 341 341 341 340 338 335 333 332 333 335 336 337 337 337 337 337 336 336 336 334 332 332 331 331 330 329 326 322 319 317 314 313 315 323 328 329 328 328 330 330 331 332 331 331 328 326 324 320 321 322 320 321 323 323 322 322 323
320 327 332 327 331 330 327 321 316 321 318 316 318 319 320 320 320 319 320 320 319 318 318 320 320 322 320 326 333 332 334 336 336 336 335 334 336 340 341 342 342 341 341 340 337 335 334 332 333 335 336 336 336 336 337 337 336 336 336 334 333 332 331 331 331 329 327 324 321 318 315 314 315 321 327 328 328 328 329 330 331 330 330 329 327 325 321 318 319 319 320 321 321 322 321 321 321
321 326 331 325 328 328 322 318 315 318 317 317 318 320 321 320 320 319 320 319 319 318 319 319 320 321 319 328 332 331 334 335 335 336 334 333 336 340 341 342 341 341 341 340 337 335 334 333 333 334 334 334 336 336 336 336 336 336 336 335 334 333 332 332 332 329 327 324 322 319 315 314 314 319 326 328 327 327 327 328 329 328 328 327 325 323 319 318 317 317 320 320 320 321 321 322 322
324 325 329 329 329 322 315 316 316 316 315 317 318 319 320 319 319 319 319 318 319 319 319 318 320 322 322 327 327 330 334 333 333 333 333 334 338 340 339 341 341 341 341 340 336 335 335 334 334 333 333 333 334 335 335 335 335 336 335 335 334 333 333 332 331 329 327 325 322 321 317 315 313 316 324 327 327 326 326 326 327 326 326 326 324 321 317 316 316 318 321 320 320 322 322 322 322
329 326 326 330 328 320 315 316 316 316 315 316 316 317 318 318 318 317 318 317 319 322 319 317 319 320 321 322 322 329 334 333 333 331 334 336 338 340 339 341 341 340 341 340 337 335 336 335 335 334 333 333 333 334 334 334 334 335 335 335 334 334 333 332 331 329 328 326 323 322 318 315 312 313 320 325 326 325 325 325 325 324 324 323 320 316 312 313 316 320 321 320 321 323 322 322 322
330 330 327 324 324 320 318 317 316 316 315 316 316 316 318 318 317 316 318 316 318 321 318 319 318 318 321 320 321 330 335 334 334 332 334 337 339 341 340 341 341 340 340 341 338 336 336 335 336 336 335 335 334 334 333 333 333 334 335 334 335 334 333 332 331 329 328 327 325 323 320 316 313 312 316 321 324 324 325 324 323 323 321 318 316 311 307 309 316 320 320 321 322 322 322 323 322
328 331 328 325 328 325 319 317 319 319 315 317 317 316 318 317 317 317 318 317 318 319 317 318 317 320 323 321 323 330 334 334 335 334 335 337 340 341 341 341 341 341 341 340 339 337 337 336 336 336 337 337 336 335 333 333 332 333 335 335 335 334 333 333 331 330 329 328 326 324 322 318 314 312 313 318 322 323 324 323 322 322 319 317 314 307 305 311 316 319 321 322 322 322 323 322 322
330 334 327 327 332 327 322 318 319 320 315 316 317 316 318 316 317 317 317 317 318 317 316 315 316 321 322 324 326 330 334 332 333 335 335 338 340 340 341 341 341 340 341 340 339 338 337 337 336 337 337 338 338 336 334 332 332 332 334 335 335 334 334 333 332 331 329 328 327 325 323 320 315 312 312 315 319 321 320 320 320 320 319 317 311 305 308 313 316 319 321 322 322 322 322 322 322
331 336 327 327 327 322 323 321 321 323 316 316 317 317 318 316 316 318 318 319 318 316 316 313 315 319 320 326 327 329 333 331 330 335 335 338 338 340 340 341 341 340 341 340 340 339 338 338 337 337 337 338 338 337 335 332 332 332 333 334 335 334 334 333 332 331 330 329 327 326 324 322 318 313 311 312 315 316 314 314 316 318 316 312 306 305 309 312 317 320 321 321 321 322 322 322 322
328 336 330 325 323 321 322 322 323 321 315 316 316 316 318 315 316 318 316 318 317 314 315 315 315 317 321 330 329 327 332 331 331 334 333 336 337 338 339 340 341 340 341 341 341 339 338 338 338 338 337 337 338 337 336 333 332 332 332 333 335 334 334 333 333 331 330 329 328 327 325 323 320 315 312 310 311 310 307 306 309 310 308 304 302 304 307 313 319 320 319 320 320 320 320 321 321
329 337 333 322 322 321 319 321 324 321 317 317 315 316 318 315 315 316 314 317 317 315 318 316 315 321 329 335 331 329 333 332 333 333 332 335 336 337 337 338 339 339 339 339 340 339 338 339 339 339 338 337 337 338 337 335 333 332 332 333 334 334 334 333 333 331 330 329 329 328 326 324 322 318 313 310 308 306 303 301 302 302 301 300 302 305 309 315 319 319 318 318 318 318 319 319 321
328 332 328 322 324 321 316 320 324 322 317 316 316 317 318 316 316 315 314 316 316 316 318 317 318 323 330 331 330 331 332 332 333 332 332 333 335 335 335 335 337 338 338 338 338 338 338 339 339 338 338 338 338 338 337 336 334 332 331 332 334 334 334 334 333 332 330 330 329 328 327 325 323 319 315 312 308 304 301 299 299 299 299 300 304 310 312 314 317 317 317 317 317 317 317 318 320
325 332 328 323 323 317 315 318 319 320 317 316 316 316 318 317 316 314 314 316 317 317 316 319 321 323 329 330 329 331 331 333 333 331 332 333 333 333 333 334 334 336 337 336 336 337 338 338 338 337 338 338 338 338 338 337 336 334 332 331 332 334 334 334 333 332 330 330 329 328 327 325 323 321 316 312 309 304 302 301 301 301 300 302 306 311 312 312 313 314 315 315 316 316 316 318 319
325 336 329 320 320 317 316 317 317 319 317 316 315 315 317 316 316 314 315 316 316 318 316 320 323 323 328 330 328 330 330 332 332 331 331 331 333 332 332 333 333 334 335 334 334 335 337 337 337 337 337 338 338 338 338 337 337 336 333 330 331 333 334 333 333 332 331 330 329 328 327 326 325 323 317 312 309 307 305 304 304 304 303 304 307 309 310 311 311 312 313 314 315 316 317 318 319
321 328 325 319 319 318 317 316 318 318 316 317 316 316 317 316 316 315 316 316 315 318 316 319 322 322 325 328 326 329 330 330 331 331 330 330 332 332 332 333 332 332 333 333 333 334 335 336 336 336 336 337 337 337 338 338 337 336 335 332 330 333 334 333 333 332 331 330 329 328 328 327 326 324 320 313 310 309 309 308 308 308 307 306 308 309 310 311 311 312 313 314 315 315 316 318 318
319 318 318 318 318 318 316 316 318 317 317 318 317 317 316 315 316 316 316 317 318 317 316 319 319 319 323 326 325 326 328 329 330 330 330 331 331 332 332 332 332 332 333 333 333 333 333 334 335 336 335 336 336 336 336 337 337 337 336 335 332 332 333 333 332 332 331 330 329 328 328 328 326 325 323 316 311 311 312 312 312 311 310 310 310 311 310 310 311 311 312 313 313 314 315 317 317
320 315 316 319 318 318 316 316 318 318 319 318 317 316 315 316 316 317 316 317 318 317 320 322 318 316 319 323 324 325 327 327 328 330 330 331 331 331 331 331 331 332 333 333 333 332 331 332 334 334 334 335 334 334 334 335 336 337 337 336 334 333 333 333 332 332 332 331 330 329 328 328 326 325 324 319 314 313 314 314 314 313 313 313 313 313 312 312 312 311 311 311 311 312 314 315 316
322 317 316 318 317 317 315 315 317 319 319 317 317 315 316 317 316 316 316 317 318 315 318 320 315 313 316 322 323 323 326 327 327 330 330 331 331 331 332 330 329 331 333 332 332 331 330 331 332 333 334 333 332 333 335 334 335 337 337 337 336 334 333 333 332 333 332 331 331 330 330 329 327 326 325 322 318 316 316 316 315 314 315 316 316 316 315 313 311 311 311 310 310 311 312 314 315
320 317 315 316 315 315 315 316 317 318 317 316 316 316 316 318 316 316 317 318 319 315 315 317 316 315 317 322 323 320 322 325 326 328 330 331 331 331 332 330 328 330 332 331 331 331 329 330 332 332 332 332 332 333 334 334 334 336 337 337 336 336 335 334 333 333 333 332 331 331 331 329 328 326 325 323 320 318 317 316 316 316 317 317 317 316 315 312 310 310 310 309 309 309 310 311 313
317 317 316 315 314 314 315 316 317 317 316 316 317 316 316 316 315 316 320 319 318 317 317 319 320 320 320 322 321 318 319 322 323 327 328 330 331 330 332 331 329 330 331 331 330 329 328 328 331 332 331 332 332 333 333 333 334 334 335 335 335 336 335 335 334 334 334 333 331 331 331 330 328 327 325 323 320 319 318 317 317 317 318 318 318 317 314 311 309 308 309 308 308 309 308 308 309
317 317 316 316 315 315 316 316 316 317 316 316 317 317 316 316 315 316 320 319 316 318 318 317 321 324 322 322 321 317 317 320 322 324 326 327 329 330 330 331 331 331 331 331 330 329 328 328 330 330 330 331 332 333 332 332 333 333 333 332 332 333 334 335 335 334 334 334 332 331 330 331 329 327 326 323 321 320 319 318 318 318 319 318 318 317 312 308 307 307 306 306 307 307 305 303 304
315 316 316 315 316 315 316 316 316 317 316 316 317 317 316 316 317 318 319 318 316 319 320 317 319 321 319 322 322 318 317 319 321 322 324 325 327 329 330 330 331 331 331 330 330 329 328 327 328 328 329 330 331 332 332 331 331 331 332 332 332 331 332 333 335 334 334 334 333 332 331 330 330 328 326 324 323 321 320 318 318 319 319 318 318 317 312 308 306 303 301 301 302 303 301 299 298
316 319 318 315 315 315 315 316 316 316 317 317 316 315 318 318 318 319 318 319 318 318 321 320 320 319 318 319 320 319 317 317 321 321 323 325 326 329 329 330 330 330 330 330 330 329 328 327 326 327 328 329 329 329 330 330 329 330 330 331 332 331 332 334 335 335 335 334 334 333 332 330 329 328 326 323 323 323 322 319 319 319 319 319 318 316 312 307 303 299 298 298 297 297 296 295 294
316 317 319 317 315 316 316 316 316 316 316 318 314 314 324 324 318 318 319 320 319 318 320 320 321 321 319 318 317 319 316 315 319 321 323 324 325 327 329 330 330 330 330 329 329 329 327 327 326 326 327 327 327 326 327 328 328 328 329 330 331 331 331 332 334 335 334 334 334 333 333 331 329 327 326 324 322 323 322 320 320 319 318 319 317 315 311 303 299 298 297 296 294 294 293 293 293
317 315 319 322 317 316 318 316 317 316 316 318 314 315 325 325 319 318 320 321 319 320 321 320 321 321 320 319 318 319 317 315 318 321 322 323 324 325 328 329 330 329 329 329 329 328 327 327 326 325 326 326 326 325 325 326 327 327 327 329 330 330 330 329 331 334 334 334 334 333 332 332 330 327 326 324 322 322 322 320 320 319 318 318 315 313 309 302 300 299 297 295 293 292 292 292 292
319 317 316 320 318 317 319 317 317 317 315 316 315 317 323 321 319 318 318 320 320 321 322 320 321 321 320 320 319 320 319 316 317 321 322 323 324 324 326 328 329 329 328 327 327 327 327 326 325 325 324 324 324 324 324 324 324 325 326 327 329 329 329 328 328 331 333 333 333 333 332 332 331 329 326 324 323 323 323 321 320 319 318 318 315 310 307 305 302 298 295 294 292 292 291 291 291
320 322 319 319 320 319 320 317 317 319 317 316 314 317 323 320 319 318 317 318 319 321 322 320 320 319 319 319 319 320 320 319 318 319 322 323 324 324 325 326 327 328 327 326 325 325 325 324 323 323 322 322 322 322 321 321 321 323 325 327 328 327 328 328 327 329 332 332 331 332 332 331 331 330 327 325 325 324 323 322 321 319 317 317 315 309 307 306 300 295 293 293 292 292 291 291 290
319 320 319 323 323 319 320 318 317 319 317 317 316 317 322 321 319 319 319 319 318 320 321 321 320 318 318 319 319 320 320 322 319 317 320 323 324 323 324 323 323 325 325 325 324 323 323 322 321 321 320 320 320 320 319 319 320 323 325 326 326 326 326 326 326 327 329 330 329 330 331 331 331 330 328 326 326 325 324 323 321 319 317 316 313 309 306 302 297 294 293 292 292 291 291 290 290
323 318 318 322 320 318 321 319 316 318 316 317 318 318 321 321 318 317 318 319 319 320 321 320 320 319 318 319 319 320 319 321 318 315 318 322 323 323 322 322 322 322 323 323 323 322 321 321 320 320 320 319 319 318 317 318 321 322 324 324 324 324 324 324 323 323 325 328 328 328 329 329 329 329 328 328 327 326 324 323 321 318 316 314 311 308 303 298 294 294 293 292 292 291 291 290 290
327 324 326 326 319 315 318 318 315 316 317 318 319 318 320 320 317 316 316 318 318 319 320 319 318 317 318 318 318 319 319 320 316 314 317 320 321 322 321 321 322 322 323 322 321 321 320 320 319 319 319 318 317 316 316 318 320 321 321 322 322 322 321 321 320 321 321 323 325 326 327 328 328 328 328 328 327 326 324 322 320 317 315 313 311 308 302 296 294 294 293 293 291 291 290 290 290
324 324 326 325 322 317 316 318 316 316 316 319 321 318 319 318 316 317 314 315 317 318 318 317 317 316 316 318 318 319 320 318 314 314 316 318 320 321 321 321 321 322 321 321 320 320 320 319 319 318 317 316 315 315 314 316 318 319 319 319 319 319 318 317 318 319 319 320 321 323 324 325 326 326 327 327 326 325 323 320 318 317 314 312 311 308 301 295 294 294 293 293 292 291 290 290 290
323 324 323 320 321 320 317 317 317 316 315 318 321 317 317 317 315 315 315 315 316 317 318 318 317 316 316 317 318 319 318 317 317 316 315 317 320 320 321 321 321 321 320 320 319 319 319 318 318 317 316 315 315 314 314 314 315 317 317 317 317 317 315 316 317 319 320 320 320 321 322 322 323 324 325 325 325 323 321 319 318 316 314 311 307 302 298 295 295 294 293 293 292 291 290 289 290
326 326 325 320 318 318 316 318 319 317 315 319 324 320 318 317 314 314 313 314 315 315 317 317 316 316 316 317 318 318 317 321 325 321 315 316 319 319 320 320 320 320 319 318 318 318 318 317 317 316 315 315 314 314 314 313 312 314 316 315 315 315 314 316 318 319 319 320 320 320 321 321 322 323 323 323 323 322 321 320 318 315 313 310 305 299 297 296 295 294 294 293 292 291 290 290 290
327 327 325 321 320 317 315 318 318 316 314 319 324 322 320 318 317 320 318 314 313 314 314 316 317 316 316 317 319 320 319 325 330 324 316 314 316 318 318 318 318 318 317 317 317 317 317 316 316 315 314 314 314 314 313 312 311 312 314 314 314 314 314 316 318 318 318 318 318 318 319 320 321 321 321 322 321 321 321 320 317 314 312 309 306 303 300 297 295 294 294 294 293 291 290 289 290
322 327 326 321 321 319 317 319 320 320 319 321 321 320 328 331 325 330 332 320 315 316 315 316 317 317 319 320 321 321 320 324 330 328 319 313 314 316 316 317 317 317 316 316 316 316 316 316 315 315 314 313 313 313 312 312 312 312 313 313 313 313 314 315 315 316 316 317 317 317 317 318 319 320 320 320 320 319 319 319 317 314 311 308 308 308 304 299 296 295 294 295 294 293 291 290 290
315 321 324 322 324 323 324 325 322 321 322 322 318 317 333 342 328 326 329 319 317 321 323 324 321 318 322 324 326 327 324 324 326 326 320 313 313 314 315 315 315 316 316 315 315 316 316 315 315 314 313 313 312 312 311 311 311 312 313 312 312 312 311 312 313 315 315 316 317 317 317 317 317 318 318 319 319 318 318 317 316 314 311 309 308 306 302 298 296 295 296 296 295 295 293 290 291
313 318 323 328 333 330 329 329 319 317 319 320 319 317 325 330 320 318 319 314 315 317 319 325 322 320 325 328 329 330 331 330 325 320 317 313 312 313 313 314 315 315 315 315 315 315 315 315 314 314 313 312 312 311 310 310 311 312 312 312 312 312 311 311 313 315 315 316 317 316 316 315 315 316 316 317 317 317 317 316 315 313 312 310 307 303 301 298 297 296 297 296 296 296 294 291 292
315 320 326 331 334 328 330 332 323 321 322 324 328 322 320 324 320 318 317 314 316 314 316 320 318 320 326 329 329 330 335 337 329 322 318 314 311 312 313 314 314 314 314 315 315 315 315 314 314 313 313 312 311 310 310 310 311 311 312 312 313 313 312 312 314 315 314 315 315 315 315 313 313 314 314 315 316 316 316 315 314 313 311 309 306 305 303 300 298 297 296 296 296 295 295 294 293
320 323 327 331 331 330 336 337 329 325 320 326 334 323 318 328 331 325 319 316 319 320 320 317 317 324 330 330 330 333 336 333 328 324 319 312 310 312 314 314 314 314 314 314 314 314 314 314 314 313 312 312 311 310 310 309 310 311 311 312 312 313 313 314 315 315 312 311 312 312 312 312 311 311 312 314 315 315 316 315 314 313 311 309 307 305 304 301 300 298 297 296 295 295 296 295 295
322 324 329 333 334 333 335 333 328 321 316 326 335 324 315 321 328 324 316 317 323 322 320 319 323 331 333 332 331 331 331 327 326 324 314 310 311 312 313 314 314 314 314 314 314 314 314 313 313 312 312 311 311 310 310 309 309 310 311 312 312 312 313 313 313 312 310 308 308 309 310 311 310 310 311 311 312 314 315 315 314 313 312 310 308 305 303 302 301 300 299 297 296 296 296 295 296
322 329 333 331 333 337 336 336 330 316 318 331 332 325 316 315 327 329 320 323 324 318 319 325 330 330 328 331 330 328 327 325 327 326 314 308 311 312 313 314 314 314 314 314 314 314 314 313 312 312 312 311 310 310 309 309 309 310 311 311 312 312 312 312 311 309 307 306 306 307 308 309 309 309 310 309 310 312 313 314 314 314 313 311 309 305 304 304 303 301 300 298 297 297 296 294 295
328 332 331 321 326 337 336 336 329 315 323 333 328 325 318 315 325 328 325 327 323 317 322 331 337 333 331 335 332 327 327 323 325 328 319 311 310 312 313 313 314 314 314 314 314 314 313 313 312 311 311 310 310 309 309 309 309 309 310 311 312 312 311 311 311 310 308 306 306 306 306 307 308 308 308 308 309 310 312 313 313 313 311 311 310 308 306 306 307 304 301 299 297 297 296 294 295
330 327 324 314 318 329 330 332 329 322 326 325 324 325 318 317 323 321 323 327 322 321 324 332 339 335 335 338 332 327 327 324 323 324 322 316 311 310 312 313 313 313 314 313 314 313 313 312 312 311 310 310 309 309 309 309 309 309 310 310 311 311 310 311 311 311 311 310 309 308 306 306 307 307 307 308 309 310 311 312 313 312 312 312 312 311 308 307 308 306 302 300 298 297 296 295 295
326 322 322 318 319 322 325 328 325 326 328 321 319 322 318 322 323 319 321 321 321 324 324 333 340 339 341 338 329 327 325 323 321 320 322 319 311 309 311 313 313 313 313 313 313 313 312 312 311 311 310 310 309 309 308 308 308 309 309 310 311 310 310 310 311 311 312 312 311 310 309 309 309 309 310 311 311 310 310 311 312 312 312 312 313 312 309 308 309 307 304 301 298 297 296 296 295
323 325 323 320 325 328 327 328 326 328 329 322 317 319 324 325 319 318 321 319 322 325 327 333 333 336 342 333 324 325 324 321 319 319 320 315 308 309 311 311 312 313 312 313 313 312 312 311 311 311 310 309 308 308 307 307 307 308 309 310 311 310 310 310 310 311 312 312 311 311 311 311 312 312 312 313 313 311 310 311 311 312 312 312 312 312 309 308 309 309 305 301 298 297 297 297 296
321 323 321 320 327 333 328 323 327 327 323 322 320 323 328 324 317 320 322 321 323 322 324 327 323 326 333 335 333 328 323 320 318 319 318 313 307 308 311 311 312 313 312 313 312 312 312 311 311 310 310 309 308 307 307 306 307 307 309 311 311 310 310 310 310 310 311 312 312 312 312 312 313 313 312 312 311 311 311 311 311 311 311 310 310 310 309 308 308 307 304 300 298 298 298 298 297
319 319 325 328 328 334 328 315 316 317 315 319 321 322 323 317 316 320 318 317 318 317 319 322 323 324 326 335 338 331 326 321 317 319 318 312 307 307 310 311 312 312 312 312 312 312 312 311 311 310 310 309 308 307 307 306 306 307 308 309 310 310 309 310 310 310 311 311 311 311 312 312 312 311 311 311 311 311 311 311 311 310 310 309 309 308 308 307 306 305 303 300 299 299 298 298 297
322 321 327 328 321 327 331 320 317 317 317 321 319 316 316 313 316 323 321 316 314 315 317 318 323 324 323 330 331 330 332 325 317 317 315 309 306 307 309 310 311 312 312 312 312 312 312 311 311 310 309 309 308 307 307 306 306 306 307 308 309 309 309 310 311 311 311 310 309 310 310 310 309 309 309 309 309 310 311 310 309 309 309 308 308 307 306 305 305 303 302 301 299 299 298 297 297
324 324 322 323 323 326 326 321 321 318 317 323 321 315 314 313 315 318 318 317 317 318 319 317 319 320 322 326 325 328 334 328 319 318 316 311 307 307 309 309 310 311 312 312 312 311 311 311 311 310 310 309 309 308 307 306 305 306 306 307 308 309 309 310 311 312 311 310 309 309 308 307 306 306 306 306 306 307 308 307 307 307 307 306 306 305 304 304 303 303 301 300 299 298 298 297 296
321 320 316 322 328 328 325 320 321 321 317 319 322 317 315 316 318 316 314 316 318 319 320 319 318 317 319 323 325 331 337 337 329 320 317 314 308 307 309 309 310 311 311 312 312 311 311 311 310 310 310 309 308 308 306 305 305 305 306 307 308 309 310 310 311 311 311 309 309 308 306 305 305 305 305 305 305 305 304 304 304 304 305 305 304 304 303 303 302 302 301 300 299 298 297 297 295
321 320 319 321 320 321 324 322 322 326 323 319 320 317 316 319 320 318 317 319 320 319 320 322 322 320 318 321 328 333 337 342 336 323 320 314 307 308 309 309 310 311 311 312 312 311 311 311 311 310 309 309 308 307 306 305 304 304 305 306 307 308 309 310 311 311 311 309 308 307 305 305 305 306 306 306 305 303 301 301 301 301 301 302 303 302 302 301 301 301 300 299 299 297 297 296 295
319 319 321 320 319 321 322 320 320 323 325 326 323 316 316 318 317 317 319 322 324 323 321 324 328 326 326 331 340 342 341 343 337 329 325 315 307 307 308 308 310 310 310 311 312 311 311 311 311 310 309 309 308 307 306 305 304 304 304 304 305 307 308 309 311 311 310 308 307 306 305 305 305 306 306 306 305 302 300 300 300 299 299 299 300 301 300 300 300 299 299 298 298 297 296 295 294
Wind_Speed
7 5 3 4 5 5 3 4 2 2 3 3 1 3 1 1 3 4 4 3 3 1 0 3 3 3 5 7 9 8 4 1 2 3 2 5 16 19 16 17 17 16 17 17 16 16 15 14 13 12 12 11 11 12 15 16 15 14 14 14 13 13 14 15 15 15 16 18 18 18 19 20 20 20 20 20 20 19 19 19 17 17 18 20 21 21 22 23 23 24 24 25 24 24 26 27 27
6 4 3 4 5 4 1 2 3 2 4 3 1 3 2 2 5 5 4 4 3 2 2 5 6 7 9 10 8 7 6 5 2 3 4 13 17 17 19 17 14 15 17 17 17 16 15 14 13 12 11 12 12 12 14 16 15 14 13 13 13 13 13 14 15 15 16 18 18 19 19 19 20 19 20 20 20 19 19 19 17 18 19 20 21 21 22 22 22 23 24 24 23 23 26 27 27
6 4 4 5 4 3 1 2 2 1 4 3 2 1 3 6 5 5 6 6 5 4 4 5 6 5 7 7 5 5 2 2 5 4 6 15 14 15 21 16 13 14 15 17 17 16 15 14 14 13 12 12 12 12 13 15 15 14 13 13 13 13 13 13 14 15 16 17 18 19 19 19 19 19 19 20 20 19 19 18 16 17 17 19 21 21 20 22 22 23 23 23 22 24 26 27 27
5 4 4 5 4 3 3 2 2 4 4 4 2 2 4 7 6 5 5 5 3 4 3 3 4 1 6 9 4 5 3 1 4 4 5 13 16 19 21 17 14 14 15 16 16 16 15 14 14 13 12 12 12 12 13 14 14 14 13 12 12 12 12 12 13 14 15 16 17 18 18 19 19 19 19 19 19 18 17 17 16 17 17 19 21 20 19 21 22 22 22 22 22 25 27 27 29
4 3 3 4 3 1 2 1 1 5 3 4 3 1 5 8 7 6 3 2 3 5 3 2 2 1 5 6 3 3 3 3 4 6 8 15 19 17 18 18 17 15 15 14 16 16 15 15 14 13 12 11 12 12 13 13 14 14 13 12 11 12 12 12 13 14 15 16 17 17 18 18 19 19 19 20 19 15 15 15 16 18 19 20 19 19 18 20 22 21 21 22 24 26 27 27 29
4 6 3 3 1 1 2 2 3 4 1 4 5 4 6 7 8 7 4 3 5 5 3 3 3 3 5 3 3 3 2 5 7 8 12 18 18 15 18 19 18 17 15 14 15 15 15 15 15 14 12 12 12 13 13 12 13 13 12 11 11 11 11 11 12 13 14 15 16 17 17 17 19 20 19 19 18 15 14 14 16 19 20 19 18 18 17 18 20 20 20 23 24 25 26 26 27
5 6 2 2 2 1 3 3 3 2 2 3 7 6 7 7 7 8 5 3 5 4 3 2 5 6 3 1 4 4 1 10 11 11 16 21 18 18 20 18 18 18 15 14 15 16 15 14 16 15 13 12 12 13 13 12 12 13 12 11 11 11 11 11 11 12 13 15 16 16 16 17 18 20 20 19 18 16 16 16 17 17 18 17 18 18 16 17 20 19 20 23 24 25 26 26 27
4 2 1 3 1 3 4 3 1 1 2 3 7 8 9 9 7 7 5 3 1 0 2 1 5 6 2 3 3 3 6 12 14 17 21 21 19 19 18 18 19 18 15 15 16 16 15 14 15 14 14 13 12 12 12 12 12 13 12 11 11 11 11 10 10 11 13 14 15 15 16 17 18 20 20 19 18 17 16 16 15 16 16 16 17 17 16 18 19 20 21 23 24 25 26 26 27
2 1 1 3 1 3 4 3 2 1 2 4 6 8 9 9 7 7 5 3 3 2 0 3 4 6 1 5 3 1 7 12 16 20 20 20 21 19 17 17 19 18 14 14 17 17 16 15 14 14 14 13 12 12 12 12 11 12 12 11 11 11 11 10 10 10 12 14 14 15 15 16 17 19 19 18 18 17 17 15 15 15 15 15 16 16 16 18 20 22 23 23 23 23 23 23 23
2 2 1 2 2 3 3 2 1 2 2 4 5 8 9 7 8 7 6 5 4 4 2 3 5 6 4 5 2 1 7 13 16 19 18 21 21 16 15 17 18 17 14 15 18 18 16 15 14 14 14 14 13 12 12 11 12 12 12 11 11 11 11 10 10 10 12 13 14 14 14 15 15 17 18 18 18 18 17 16 15 15 15 16 16 15 17 19 21 22 23 23 22 22 24 24 24
2 2 2 2 3 3 2 2 3 3 2 3 3 4 7 7 6 6 7 5 4 5 2 1 6 5 5 4 0 4 14 15 16 20 20 20 16 10 16 20 18 16 15 15 18 18 17 16 15 14 14 15 14 13 12 11 11 12 12 11 11 11 11 10 10 10 11 12 13 13 14 14 14 16 17 18 18 18 17 15 16 16 15 16 16 17 18 20 21 22 22 23 23 23 25 26 26
2 3 4 2 1 3 4 5 5 4 3 3 1 1 4 5 6 6 8 6 4 5 2 1 4 5 5 2 1 8 15 14 16 20 19 17 13 13 19 22 18 17 15 15 18 18 17 16 16 15 14 14 14 13 12 11 11 11 11 11 11 11 10 10 10 10 10 11 12 13 13 14 14 15 16 17 18 18 17 15 16 16 15 17 17 18 18 20 22 23 24 24 24 24 25 25 26
1 1 5 1 2 4 5 6 5 5 3 3 3 3 3 5 4 6 8 7 6 6 2 4 2 6 5 1 2 8 11 14 17 17 18 16 13 16 20 21 19 17 15 15 18 19 17 17 16 16 15 14 13 13 13 12 11 11 11 11 12 11 10 10 9 9 9 10 11 12 13 13 13 14 15 16 17 17 16 16 17 16 16 17 18 19 20 22 23 25 25 25 24 24 24 24 24
1 1 5 1 1 4 5 4 3 4 2 4 3 3 3 3 2 4 7 7 3 5 2 3 4 7 3 1 2 4 8 16 19 17 18 16 14 17 19 20 20 17 15 15 17 17 17 17 16 16 15 14 14 13 13 12 12 12 12 12 12 11 10 10 9 9 9 9 10 11 12 13 13 13 14 15 16 16 15 16 17 17 17 18 18 19 21 23 26 27 25 24 24 24 23 23 22
2 1 4 1 3 2 3 3 4 5 2 4 5 4 4 2 3 6 6 7 1 3 1 2 3 4 3 5 4 7 14 21 20 18 19 17 15 15 16 19 19 18 17 15 16 15 16 17 17 16 15 15 14 14 13 13 13 12 12 12 12 11 10 9 9 9 9 9 9 10 11 12 13 13 13 13 14 13 14 16 17 17 17 18 19 20 22 25 27 26 25 23 23 22 22 21 21
2 2 4 2 2 1 2 3 5 5 2 4 5 5 6 2 2 5 1 6 2 1 2 2 2 2 5 6 6 15 23 22 19 18 19 17 14 14 14 16 18 17 17 16 16 15 15 17 17 16 16 15 14 14 13 13 13 13 12 12 12 12 10 10 10 10 10 10 9 10 10 11 12 13 13 12 13 12 13 16 18 18 18 19 19 21 24 26 27 25 24 22 21 21 21 21 21
3 4 4 2 1 1 1 2 5 4 3 4 4 5 6 1 2 2 0 6 5 2 4 2 4 5 4 3 12 27 28 22 21 20 20 18 15 15 15 16 17 16 15 16 17 17 17 17 17 16 16 15 14 14 13 13 13 13 13 12 12 12 11 10 11 11 10 10 9 8 9 10 11 12 13 13 13 13 14 16 18 19 20 20 21 22 24 26 25 25 24 22 21 20 20 22 24
4 3 3 1 1 0 2 4 6 5 5 6 6 6 7 4 1 1 2 5 3 4 5 4 7 8 8 12 21 29 27 24 23 22 21 18 16 17 17 17 19 18 17 16 17 18 18 17 16 16 17 17 15 15 15 14 14 13 14 14 13 12 12 12 12 12 11 10 8 8 10 10 11 12 12 13 13 14 15 17 19 20 21 22 23 24 24 24 23 23 23 21 20 19 20 24 27
3 3 4 1 3 0 4 2 4 5 7 7 7 6 6 6 5 3 2 2 3 5 2 4 7 6 9 15 21 25 25 25 23 23 22 19 18 18 19 19 19 20 20 19 19 17 18 18 16 16 17 17 16 15 16 15 16 14 14 15 15 14 13 13 13 12 12 11 9 9 10 11 11 12 12 13 14 15 16 17 20 21 22 23 24 24 23 22 22 21 21 20 20 19 21 26 29
2 3 4 3 5 1 5 3 1 4 9 9 6 5 3 4 4 3 4 4 4 5 4 4 4 5 7 10 17 22 22 22 22 22 21 20 20 20 21 22 22 23 23 22 21 18 19 20 18 17 17 17 16 15 16 16 16 16 15 16 16 16 15 14 14 14 13 12 10 11 11 11 11 12 12 13 14 16 17 18 19 20 22 22 23 23 22 20 20 20 19 19 19 19 22 26 29
1 3 4 5 4 2 4 4 4 3 10 9 7 6 4 3 4 3 5 5 3 6 7 8 8 10 11 9 14 20 20 21 21 20 20 20 21 21 22 24 24 23 23 22 22 22 21 21 20 18 18 17 16 15 17 17 17 17 16 16 16 17 16 16 16 15 15 13 12 12 12 11 11 12 12 13 15 16 18 19 19 20 21 21 21 21 20 19 18 17 18 19 19 20 23 26 27
3 1 4 3 2 3 4 3 5 2 8 7 7 7 5 4 3 4 7 5 5 6 7 10 10 13 15 13 15 17 17 19 19 20 21 21 22 23 22 23 21 21 22 23 24 24 22 23 22 19 18 18 17 16 15 16 17 18 18 17 18 18 18 17 17 17 17 16 14 14 13 13 13 13 13 14 15 17 19 20 20 20 21 20 19 18 18 17 16 16 16 18 20 21 24 26 27
3 1 1 3 2 4 2 2 5 3 9 7 5 5 4 5 2 3 7 6 6 5 6 8 8 15 20 18 17 14 14 17 19 22 23 24 24 24 25 25 22 22 24 25 26 25 23 23 23 21 20 20 19 15 14 15 16 17 19 19 19 19 19 18 18 19 19 18 17 17 16 16 15 14 14 15 16 18 20 20 21 21 20 20 18 17 16 15 14 15 16 19 21 22 24 26 27
5 1 1 3 4 4 1 1 4 6 8 3 3 4 3 6 3 1 3 7 6 6 5 7 10 17 20 16 14 14 16 18 21 25 26 26 27 26 26 25 24 24 25 26 26 25 23 22 23 23 22 22 20 16 16 15 15 16 18 19 19 19 20 20 19 19 20 21 20 19 19 19 18 17 16 16 17 18 20 21 22 21 19 18 16 15 14 14 15 17 19 21 22 23 25 27 27
4 3 2 2 3 1 1 3 5 7 5 2 5 4 2 6 5 1 5 8 6 6 5 9 12 15 15 13 13 13 14 18 20 22 24 25 25 24 25 25 24 26 27 27 26 25 22 21 23 25 24 23 22 19 17 17 16 16 17 20 21 20 21 21 20 20 20 23 23 21 21 22 21 20 19 19 19 19 20 22 23 21 17 15 13 13 13 15 18 20 21 23 24 25 26 27 28
2 5 3 3 2 1 2 4 5 4 2 4 5 1 2 4 3 2 7 8 7 6 7 8 11 11 11 11 12 12 12 16 19 21 24 25 24 22 23 26 26 27 29 28 26 24 22 21 23 25 23 22 23 22 19 18 18 17 17 18 20 21 22 22 21 21 21 23 25 24 23 24 23 22 21 21 21 22 22 23 23 20 17 14 12 12 14 17 20 22 23 25 25 26 27 27 28
3 7 5 5 5 2 2 3 3 3 3 5 5 1 4 3 1 3 8 6 7 8 7 7 9 10 10 9 10 13 14 17 22 22 22 22 24 24 23 26 28 28 29 29 26 24 22 23 24 24 23 21 22 24 21 19 19 18 17 17 18 20 22 23 22 23 23 23 25 26 24 24 24 24 23 23 23 23 24 24 22 20 18 16 13 14 17 19 21 23 24 26 26 27 28 27 28
6 9 6 3 3 1 3 5 2 2 2 2 4 0 4 4 1 6 7 3 8 9 8 7 8 8 9 9 9 11 13 19 23 21 21 23 26 28 27 27 30 29 29 29 26 24 24 24 24 23 24 23 22 24 23 20 18 18 17 17 17 18 20 23 23 23 24 23 24 26 25 24 26 26 26 26 25 25 25 26 23 20 20 19 16 16 19 20 22 25 26 28 28 29 29 28 28
7 7 6 1 4 3 1 3 2 3 1 2 4 2 5 1 5 9 5 4 8 8 8 7 7 7 7 8 7 8 12 17 20 21 25 28 29 30 30 29 29 29 29 27 25 25 25 24 24 23 24 24 23 23 24 22 20 18 17 19 19 19 20 23 25 23 23 23 22 24 25 25 28 29 28 28 28 26 26 27 25 23 22 21 19 19 20 22 25 28 28 28 29 29 30 30 29
4 3 6 3 5 3 5 1 2 4 1 2 3 1 5 6 10 9 4 5 7 7 7 7 7 6 6 7 6 7 11 15 19 24 28 28 29 30 31 30 29 28 27 26 27 27 26 25 25 25 26 26 25 24 24 24 23 20 19 19 21 22 21 22 24 23 22 22 22 22 23 25 30 31 30 31 30 29 29 29 28 26 25 22 22 23 23 26 29 29 29 29 29 29 30 30 29
3 2 3 3 3 3 6 0 4 4 1 3 6 2 5 7 10 7 5 6 8 7 7 6 6 6 6 7 7 7 9 15 20 25 27 28 30 30 30 30 28 28 27 27 28 28 28 27 27 27 27 27 27 26 25 24 24 24 21 20 22 23 23 23 24 24 23 22 24 24 23 25 30 33 33 33 33 31 30 30 29 29 27 24 25 26 26 29 29 28 29 30 29 29 30 30 29
2 3 2 1 3 3 6 2 5 5 2 3 6 2 6 7 9 5 3 6 7 7 7 7 7 7 7 7 7 7 8 13 18 22 25 27 29 30 31 31 29 29 29 28 28 28 29 29 28 28 28 27 27 26 26 26 25 25 23 22 22 23 23 23 23 24 22 22 24 27 27 26 28 32 35 35 34 32 31 31 31 30 28 26 27 28 29 30 30 30 30 31 32 30 30 30 30
3 3 2 2 3 2 4 3 1 5 1 2 2 2 4 4 5 6 3 4 6 6 7 8 8 8 8 7 7 7 7 9 12 18 23 26 28 30 31 31 31 31 30 30 29 30 30 29 29 28 27 27 26 25 24 25 25 25 24 23 23 22 22 23 24 24 23 22 23 25 27 27 26 29 33 34 33 33 32 33 32 31 30 29 29 30 30 30 32 34 32 31 32 31 31 32 31
3 2 1 3 4 4 2 3 3 3 4 0 0 2 5 6 6 7 6 4 5 6 9 9 9 8 8 8 8 8 8 8 10 17 24 27 28 29 29 30 30 30 30 31 31 31 30 29 29 27 26 25 25 24 23 24 25 24 24 23 23 22 21 22 23 24 24 23 22 23 24 25 24 26 30 33 34 33 33 34 33 32 32 31 32 32 32 32 34 35 34 32 31 32 32 32 32
4 3 1 2 2 3 3 3 2 2 3 2 1 3 10 11 9 7 7 6 7 9 10 9 9 9 8 8 8 8 9 9 12 20 26 27 28 28 28 28 29 30 30 31 31 30 29 29 28 26 26 25 24 23 23 24 25 24 24 23 23 22 22 21 21 23 25 24 22 21 23 24 24 25 29 32 34 34 35 36 35 34 34 33 35 35 34 35 34 34 35 33 31 31 31 33 33
8 6 5 4 3 1 3 2 2 2 3 4 6 5 9 11 10 9 9 7 8 10 10 8 8 8 8 8 8 8 9 11 15 21 25 27 28 27 26 27 28 29 30 30 30 30 29 28 27 26 25 25 24 23 24 26 25 24 24 23 23 23 23 22 22 22 24 25 23 21 22 24 24 25 28 32 34 35 36 37 36 36 35 36 37 37 37 38 36 36 36 35 34 31 31 32 33
7 5 5 4 5 0 2 1 4 0 3 5 7 6 8 9 11 11 9 7 7 10 10 10 10 9 8 8 8 9 10 10 12 17 22 25 27 26 26 26 27 28 29 30 30 30 29 28 28 26 25 24 25 25 26 27 27 25 24 23 23 23 22 21 22 23 23 24 24 23 22 23 23 25 28 31 35 36 37 37 37 36 36 38 38 38 39 38 37 37 36 36 35 35 34 32 33
6 5 5 3 4 2 2 1 4 2 2 5 3 4 10 10 10 11 8 8 9 11 11 12 13 11 9 9 10 10 8 5 6 10 16 22 24 25 26 26 28 29 29 30 30 29 29 28 27 26 25 25 25 25 25 26 27 27 25 23 23 21 19 19 20 23 23 24 25 26 25 25 25 26 28 31 34 36 36 37 37 37 38 39 37 37 38 38 36 36 37 36 34 35 35 34 35
6 4 5 3 1 2 1 2 3 1 2 4 4 5 10 11 10 11 10 10 11 10 11 12 12 11 9 9 9 10 8 5 5 8 13 21 24 25 26 26 28 29 28 28 28 28 27 27 26 25 25 26 25 24 22 22 24 25 23 21 20 19 17 17 18 20 22 24 25 26 27 27 27 28 30 31 33 34 35 36 37 38 39 40 39 38 38 38 37 36 38 38 35 34 32 35 35
4 4 5 1 1 2 0 3 3 0 1 2 3 4 9 10 7 10 11 10 11 10 9 10 10 10 11 10 10 10 10 8 6 6 10 17 20 23 25 27 28 28 27 27 27 27 27 27 26 25 26 26 24 23 20 19 21 22 21 19 18 18 17 18 18 17 19 22 24 25 26 26 28 30 31 31 33 35 35 36 38 38 40 40 40 40 39 39 39 38 38 39 39 35 33 35 28
2 3 5 3 2 4 2 2 2 2 3 2 3 5 6 6 5 7 7 4 6 8 7 10 10 9 9 8 9 9 10 9 8 8 8 13 18 23 26 27 27 27 27 28 28 28 27 27 26 25 25 25 23 21 19 19 20 21 21 18 17 17 17 19 20 20 19 21 24 25 25 25 26 28 30 31 32 35 35 36 37 38 40 39 39 41 41 40 40 41 39 39 41 39 38 36 25
3 0 3 6 7 6 3 4 5 5 5 3 3 4 6 5 6 7 6 5 6 6 5 10 10 6 7 7 8 8 7 7 8 10 10 13 17 20 22 24 26 27 28 28 28 28 27 27 26 25 24 24 22 21 20 20 21 22 23 22 22 21 20 22 24 24 23 22 23 24 25 25 26 27 28 29 31 33 35 35 36 38 39 40 40 40 40 40 41 41 41 40 40 39 40 37 28
0 3 4 6 8 7 5 5 4 2 3 3 3 2 5 7 6 9 9 9 11 9 7 12 11 5 6 7 7 7 5 6 7 8 9 12 15 17 19 23 26 27 27 27 26 27 27 26 25 25 24 23 23 22 21 21 22 23 24 24 24 23 22 22 23 23 22 22 22 24 25 25 26 27 28 29 31 33 34 35 36 38 40 41 40 38 38 40 42 41 41 40 39 38 39 38 32
2 4 5 6 7 7 5 6 4 2 3 4 4 3 3 6 6 9 10 9 11 10 10 13 10 5 7 8 7 6 6 7 7 8 8 10 15 18 21 24 26 26 25 26 26 27 27 26 25 25 23 23 23 23 22 22 23 24 24 24 23 23 22 21 21 21 21 22 23 24 25 26 27 27 28 29 30 32 34 35 36 37 39 40 39 39 39 40 41 41 40 39 39 38 38 38 36
4 4 5 6 7 7 5 7 3 1 2 5 6 1 2 6 7 6 4 4 9 10 12 13 9 7 8 6 4 4 5 5 7 8 8 10 16 20 22 24 25 25 24 25 26 26 26 25 24 24 24 23 23 23 23 23 23 23 24 23 22 22 22 21 20 21 21 22 24 24 25 28 29 28 28 28 30 32 33 34 36 38 39 40 39 39 39 40 40 41 41 40 39 39 38 37 36
3 3 6 5 5 5 5 5 3 3 2 4 6 2 2 5 7 5 0 2 7 9 9 9 7 6 5 3 4 3 2 3 5 6 8 13 18 20 21 21 22 23 24 24 25 26 25 25 24 24 24 24 24 23 23 24 24 23 24 24 23 23 22 21 20 21 21 22 24 25 26 28 30 31 29 28 29 31 33 34 35 38 39 40 39 38 38 39 40 41 41 41 40 40 39 37 35
5 5 7 7 6 5 4 3 4 3 3 6 7 5 2 4 6 4 3 4 6 5 4 5 4 3 3 4 4 4 3 3 5 5 7 11 15 18 18 19 21 22 23 23 24 25 26 25 25 25 25 25 25 24 23 24 25 24 25 25 25 24 24 23 21 21 22 23 24 25 26 28 30 32 32 30 29 31 32 33 35 37 38 40 39 38 38 40 40 40 41 41 41 40 39 38 34
6 5 5 4 4 5 5 5 4 1 5 6 6 2 3 4 6 4 5 7 6 5 4 5 6 5 5 6 5 5 3 2 3 5 6 8 10 14 17 19 21 22 23 24 25 26 26 26 26 25 25 26 26 25 24 25 25 25 26 25 25 25 25 24 24 24 25 25 26 26 26 28 29 31 32 32 31 31 32 33 34 36 38 39 40 39 40 40 40 40 40 41 41 40 39 38 34
5 5 6 4 2 3 3 3 1 2 6 5 4 2 3 6 6 6 9 9 6 5 6 7 8 7 7 7 6 5 5 4 4 4 6 6 7 12 17 20 22 23 25 26 26 27 27 27 27 27 27 27 27 26 26 26 26 26 27 26 26 25 25 25 25 25 26 26 27 28 29 29 30 31 33 34 34 34 34 35 36 38 39 40 40 40 40 40 39 39 40 41 40 40 39 37 35
4 5 5 5 3 2 2 4 1 3 5 4 3 2 3 4 4 8 11 9 7 6 6 7 8 8 8 8 6 6 5 5 5 5 5 6 8 13 17 21 23 24 26 27 27 28 28 28 28 28 28 27 27 27 27 27 28 27 28 27 27 26 26 25 26 26 26 27 28 30 31 32 33 34 35 37 37 37 37 36 37 38 39 40 39 40 40 39 38 38 39 40 40 39 37 35 34
4 5 6 5 5 4 4 3 3 4 4 3 3 2 3 2 3 7 7 7 7 6 6 5 5 5 4 4 5 6 6 5 5 5 6 7 10 14 17 20 23 25 26 27 28 29 29 29 29 30 29 28 28 28 28 28 28 28 29 29 28 28 27 27 27 26 26 27 29 30 31 32 33 34 35 37 38 39 39 37 37 37 38 39 39 40 40 39 38 38 39 40 39 37 35 32 32
2 4 6 2 4 5 3 3 5 3 1 3 2 3 5 4 6 8 7 9 8 7 7 5 5 5 0 3 5 5 5 6 5 6 6 8 12 15 17 19 22 24 26 28 29 30 30 30 30 30 30 29 29 29 29 28 28 28 29 30 30 29 28 28 28 28 27 27 28 29 30 30 31 33 35 36 37 38 39 39 38 37 37 38 39 40 40 39 39 39 39 39 38 36 34 32 31
1 3 3 5 4 7 5 2 0 3 1 4 2 5 5 3 6 8 6 8 8 8 9 7 7 6 3 4 5 5 6 6 7 8 8 9 12 16 19 21 23 25 27 29 30 31 31 31 31 31 30 30 30 30 30 29 28 28 29 30 31 30 30 31 30 30 29 27 27 28 28 29 31 33 34 35 36 37 38 38 38 38 38 38 38 39 39 39 39 40 40 39 38 36 33 32 31
5 3 5 3 1 4 4 1 2 3 2 4 2 6 6 2 5 6 5 4 3 6 8 9 9 6 5 7 5 6 7 7 8 9 8 9 12 17 21 24 26 27 28 30 30 31 31 31 31 31 31 32 32 31 30 30 30 30 31 31 32 32 31 32 31 31 30 28 28 28 28 29 31 32 33 33 34 35 36 37 37 38 38 38 39 39 39 39 39 39 40 39 39 37 34 32 31
4 4 3 3 2 1 2 2 2 1 2 5 4 5 5 5 6 4 5 5 3 5 9 10 11 8 7 8 7 6 6 6 7 8 8 8 12 18 22 24 26 27 27 28 29 29 30 31 31 31 31 31 31 31 30 30 31 32 32 32 33 34 33 32 32 31 31 30 29 29 29 30 31 31 31 31 32 34 35 36 36 37 38 38 39 38 38 38 39 40 40 40 39 38 36 34 32
2 1 1 2 3 4 3 3 3 3 3 4 3 4 4 6 6 6 8 9 7 9 9 8 10 11 8 7 7 7 6 6 7 8 7 8 13 20 23 24 25 26 27 27 27 29 30 30 31 31 31 30 30 30 30 31 31 32 33 33 34 35 34 33 32 32 32 31 31 30 30 31 31 31 31 31 31 32 34 36 36 37 38 38 38 38 38 39 40 40 41 41 40 38 37 36 34
2 2 2 1 2 2 1 1 2 4 4 3 2 5 7 6 4 8 9 9 9 9 8 8 9 9 8 7 7 7 6 7 7 7 7 8 13 19 21 23 24 25 25 26 27 29 29 30 32 32 31 31 31 31 31 31 31 31 33 34 34 34 34 34 33 33 33 33 32 31 31 31 31 31 32 32 32 32 34 35 37 37 38 39 39 39 39 40 40 41 41 41 41 40 38 37 36
6 6 6 6 4 4 2 2 2 2 3 4 3 5 11 5 5 6 8 7 8 7 8 8 7 7 7 8 7 7 6 7 7 7 7 8 12 16 18 19 21 22 24 25 26 27 29 31 33 33 33 33 33 32 32 31 31 31 33 33 33 33 34 34 35 35 35 34 33 32 32 32 32 31 32 32 33 33 34 35 37 38 39 39 39 40 41 41 41 41 41 41 41 40 39 38 37
Wind_Direction
326 331 338 42 22 8 21 73 57 312 79 85 108 97 235 195 113 90 65 47 62 3 252 107 44 44 95 112 125 109 64 317 195 145 171 158 146 149 145 146 148 146 148 145 146 145 143 138 128 124 121 122 122 121 121 118 113 110 105 98 94 89 83 76 73 70 67 73 75 75 78 80 81 81 82 82 83 84 85 85 83 86 89 86 81 77 79 80 79 81 80 83 85 81 81 83 83
333 344 18 36 20 17 296 83 85 315 60 58 337 121 170 38 57 90 96 85 116 187 156 90 64 69 101 123 126 91 45 5 68 115 108 133 139 147 147 150 152 144 146 148 149 148 146 142 134 129 126 125 126 123 122 121 116 113 109 103 100 94 89 82 76 72 69 73 75 77 80 83 83 83 83 84 85 86 86 86 83 79 80 80 79 80 81 82 82 82 83 85 84 79 81 82 82
347 5 43 39 20 51 71 38 101 100 76 94 274 256 95 78 86 117 112 114 145 150 109 67 61 77 96 94 67 63 85 359 73 86 108 136 137 143 150 154 153 144 146 150 151 151 149 145 138 134 133 130 129 125 123 125 120 116 114 107 104 99 93 87 79 75 72 74 76 78 82 85 86 85 85 87 86 87 89 90 92 87 85 88 88 87 82 81 85 85 85 84 80 79 81 79 81
4 24 32 50 34 28 56 42 145 113 109 151 202 286 93 115 128 116 111 128 147 105 85 57 52 14 86 95 90 71 113 123 98 110 124 147 141 140 148 150 149 144 146 150 152 151 150 150 142 137 137 134 131 128 126 128 124 120 118 112 107 102 96 89 81 75 73 75 78 81 84 87 89 89 89 90 87 89 97 98 101 100 96 96 95 91 84 82 85 87 87 84 80 80 80 79 83
23 32 12 71 76 12 80 59 94 91 146 176 150 182 129 131 128 114 99 86 72 73 73 92 88 336 72 90 126 100 119 112 115 121 126 150 144 142 149 148 146 144 150 151 152 153 151 153 148 143 139 135 133 131 130 130 127 124 122 117 111 105 99 93 85 78 76 78 81 84 86 89 92 93 92 91 89 92 99 98 98 99 95 92 92 87 83 85 86 87 90 88 84 81 81 81 85
16 22 16 84 117 223 84 69 69 71 179 169 129 157 149 132 129 121 90 46 36 59 60 76 115 98 71 30 62 81 195 136 129 128 134 148 145 144 149 149 147 148 156 156 154 154 150 153 151 147 143 138 135 133 133 132 130 127 126 122 116 109 103 96 88 82 79 80 82 85 87 90 96 98 95 91 91 94 95 95 97 97 94 91 91 89 84 87 89 90 94 92 86 82 82 84 85
14 15 31 68 327 357 93 115 115 70 18 117 131 148 146 131 130 119 102 67 22 21 28 62 124 104 78 108 78 14 106 146 143 140 143 148 146 143 146 151 152 153 162 161 157 154 150 153 152 150 146 142 138 136 135 133 133 131 129 126 120 113 107 99 91 86 81 82 83 87 91 94 99 103 99 93 95 98 93 93 98 99 95 90 90 91 86 87 90 92 96 94 88 85 86 86 86
28 20 107 89 1 22 92 104 96 134 29 61 127 138 138 136 131 121 129 130 83 327 17 41 105 95 42 77 103 356 90 137 146 144 147 151 151 145 147 155 156 159 165 160 158 156 151 153 155 152 148 145 141 139 138 136 137 136 133 131 126 119 113 106 97 92 86 85 86 90 96 98 102 106 102 96 98 100 96 94 94 95 94 93 93 92 90 90 91 91 94 96 92 91 91 90 90
65 158 4 86 87 29 81 74 46 110 56 65 113 129 136 141 133 127 137 140 150 134 148 204 97 101 125 61 93 315 94 128 143 147 151 153 152 147 150 159 161 162 162 159 159 158 152 155 157 155 152 149 146 143 141 140 141 140 137 137 133 125 121 114 106 101 93 90 89 91 96 99 104 108 105 99 98 99 100 100 93 91 92 93 96 95 94 94 94 94 96 99 96 93 92 90 93
61 175 51 87 79 58 67 62 58 84 95 107 117 135 145 148 137 136 134 136 141 109 230 211 96 113 136 88 97 215 134 135 140 148 151 151 150 150 160 167 170 164 158 160 162 160 156 158 158 157 155 151 151 148 146 146 145 144 143 142 137 131 127 122 116 108 98 94 91 91 94 98 103 109 107 103 102 102 101 103 99 96 97 95 98 100 98 95 96 97 98 101 99 95 94 93 97
27 294 103 73 53 99 163 106 110 122 131 106 71 136 151 145 126 126 122 120 119 119 226 19 95 132 106 97 263 153 148 142 140 147 150 149 143 149 168 171 174 167 160 162 164 164 162 162 160 159 156 152 153 152 153 153 151 149 147 146 142 138 133 128 122 112 103 98 94 91 94 97 102 110 112 108 107 105 103 104 102 101 104 103 103 102 98 99 100 99 101 104 102 98 98 99 101
43 306 73 78 82 145 171 133 139 133 105 97 75 235 135 111 105 123 127 127 123 116 206 157 126 142 90 70 210 146 149 149 146 148 153 150 136 140 158 165 168 166 162 163 168 169 167 166 163 162 160 157 155 155 158 156 156 155 151 150 147 144 141 135 126 118 110 102 98 94 95 98 103 111 116 115 112 110 108 107 104 102 107 107 103 102 102 104 103 104 109 109 105 102 102 102 103
119 263 81 135 197 128 136 131 155 125 105 174 173 211 109 92 123 156 142 130 133 119 193 231 133 95 92 34 138 150 155 157 153 153 156 146 138 142 148 154 158 162 160 160 169 171 171 171 168 167 166 164 162 159 160 160 161 161 156 155 153 152 149 142 134 128 119 107 102 98 97 99 104 112 117 119 118 117 114 111 108 104 105 105 104 107 109 108 109 113 116 112 108 105 103 102 102
174 213 107 206 289 113 128 118 153 126 179 225 173 175 117 97 142 142 130 112 122 148 194 262 105 92 99 96 133 176 166 163 158 156 155 140 141 148 144 147 150 155 157 158 166 172 175 176 174 173 172 170 169 164 162 165 166 164 164 162 159 160 157 151 143 136 126 114 106 102 101 101 104 111 118 121 122 123 121 116 112 109 106 106 109 113 111 112 117 120 118 114 111 107 103 102 101
180 221 102 91 353 84 141 133 158 133 162 203 175 159 101 94 111 76 113 125 165 215 175 357 93 99 150 163 207 195 166 164 160 159 157 141 143 153 150 150 150 153 160 161 163 172 177 179 179 177 179 176 172 169 167 169 169 168 169 169 166 166 165 158 148 143 133 122 113 108 106 105 107 110 116 122 125 124 122 118 114 111 109 111 114 115 114 119 123 121 118 115 113 110 106 102 101
158 104 78 58 349 97 155 132 129 122 178 195 177 135 90 337 89 76 139 135 133 295 50 16 25 87 156 186 193 163 158 159 159 165 161 146 143 153 155 154 154 156 164 169 165 171 176 179 182 182 184 182 177 174 172 172 172 173 172 173 172 171 170 163 155 150 142 132 123 116 114 113 112 113 117 123 126 124 120 117 116 116 116 117 117 116 119 124 124 121 120 118 116 114 110 106 105
69 75 65 30 302 132 150 149 147 149 186 186 171 131 114 298 32 84 4 90 112 82 63 35 14 57 112 149 148 149 154 156 158 164 164 155 148 154 159 159 161 161 167 174 173 174 176 178 183 186 187 184 181 179 179 176 175 177 176 175 175 177 173 168 165 157 151 144 135 126 123 123 121 120 121 124 126 124 120 120 121 122 121 121 120 119 122 125 125 124 121 119 118 117 114 111 111
61 78 89 42 228 82 289 209 177 147 151 174 179 150 129 157 170 128 58 60 95 95 79 66 41 48 85 113 134 145 152 155 157 160 164 163 157 160 165 167 170 171 174 181 184 181 178 181 184 186 188 185 182 184 185 182 179 182 181 178 178 180 176 174 172 166 162 156 149 139 130 130 130 129 128 128 127 124 124 125 126 127 127 126 124 122 124 128 131 129 124 120 119 117 116 116 116
97 105 96 207 199 58 314 225 155 138 151 166 174 165 144 169 168 135 151 161 135 112 94 79 70 64 93 118 135 146 154 156 160 160 164 170 171 172 171 174 178 179 184 188 191 188 183 186 189 184 183 185 185 186 187 186 185 185 186 183 182 183 180 180 178 174 173 165 160 149 136 135 135 135 135 134 130 129 130 131 132 133 133 132 130 131 132 135 138 136 130 124 122 119 117 119 120
144 103 88 238 194 138 337 359 77 149 147 148 170 175 152 176 153 137 177 171 167 166 170 123 129 168 149 143 146 152 159 162 166 165 169 176 181 182 177 179 184 185 189 193 194 194 190 192 194 184 179 184 186 186 185 188 189 188 190 189 189 187 183 183 183 181 179 172 168 159 147 142 139 139 141 142 138 136 137 137 137 138 138 138 139 139 138 139 140 141 137 132 128 123 121 123 124
110 102 145 229 173 106 319 339 4 115 137 146 156 130 130 172 142 150 152 142 230 227 198 182 185 178 167 166 160 161 166 170 175 174 176 180 186 190 186 184 189 192 192 196 196 195 196 197 194 183 179 184 189 190 186 189 192 191 193 193 194 190 185 185 186 186 184 178 174 169 160 155 151 147 148 149 145 142 141 141 141 141 142 144 146 144 140 141 142 141 141 138 133 129 127 128 128
61 84 163 237 130 112 274 316 2 82 124 126 129 128 154 149 137 175 148 153 229 231 207 199 189 168 166 172 167 168 171 177 184 185 184 185 188 193 193 191 192 195 194 194 192 193 197 197 194 186 182 185 192 197 192 191 192 192 195 195 195 194 192 190 189 190 188 181 178 179 172 168 166 156 153 153 150 148 144 144 144 144 146 148 151 149 144 145 145 143 142 139 137 136 134 133 131
92 252 36 355 90 123 247 345 358 60 104 113 135 146 149 122 167 203 161 188 212 205 196 188 181 164 164 164 163 172 179 184 190 191 190 188 190 192 193 194 192 194 194 193 191 192 196 195 193 191 189 190 192 196 196 196 194 194 197 197 197 197 197 196 195 194 192 184 181 188 186 179 175 164 159 160 157 154 150 149 147 148 152 154 156 155 151 151 150 147 143 138 139 139 137 136 134
95 169 350 29 70 100 170 71 29 66 95 132 140 116 133 149 184 205 196 224 203 196 183 133 137 148 152 157 167 180 183 187 195 195 194 192 193 194 194 194 192 193 191 192 194 195 200 197 193 193 194 196 194 190 193 199 199 196 197 200 202 202 201 200 201 199 195 190 187 194 196 190 183 174 169 168 164 161 158 154 152 156 160 160 162 163 158 154 151 149 145 140 138 139 138 137 135
85 148 193 99 70 83 126 79 60 71 84 83 98 103 181 178 169 152 233 236 198 185 153 116 122 136 149 163 177 183 185 191 196 197 199 199 197 195 195 194 193 194 193 193 195 198 203 200 194 194 197 198 193 188 191 199 201 199 198 202 204 203 202 201 204 204 202 197 192 197 202 197 189 181 177 173 169 167 164 159 160 165 167 165 166 165 160 153 148 147 145 141 138 138 137 135 135
170 141 145 114 115 167 99 63 58 77 69 63 92 62 282 202 177 245 239 224 192 162 133 133 134 144 165 174 181 183 186 193 194 196 200 201 200 199 197 194 194 195 195 194 194 198 200 197 194 194 196 196 192 190 190 194 200 203 205 208 207 205 204 203 204 205 208 206 199 200 204 200 195 189 183 177 173 171 169 166 168 172 172 173 175 166 157 151 147 146 145 143 140 139 136 134 135
136 115 110 115 141 181 92 94 67 72 48 59 99 265 295 286 322 255 259 230 172 147 140 155 149 161 180 181 188 188 188 195 194 193 194 197 202 204 199 193 193 194 193 193 195 198 196 193 194 192 192 192 193 193 192 194 201 206 211 213 213 212 209 207 209 208 209 213 208 203 201 201 201 195 188 183 180 176 173 173 176 177 176 178 181 168 154 151 149 147 145 144 144 142 137 135 135
119 113 90 90 123 62 71 114 127 70 44 51 103 50 310 348 340 228 248 210 151 150 162 174 169 179 189 188 192 191 195 199 195 189 189 194 199 202 201 196 193 192 192 193 195 196 192 193 195 195 195 195 197 198 197 198 203 209 214 217 216 215 213 211 212 211 211 216 216 209 204 203 203 199 194 189 186 183 179 179 182 183 181 181 181 170 158 156 152 147 144 142 141 142 139 137 136
126 111 93 57 41 37 193 139 157 101 70 259 111 13 311 237 233 240 234 158 141 149 170 185 192 196 200 201 197 197 203 198 192 193 196 197 198 199 200 199 195 193 195 196 195 192 192 194 196 196 197 198 200 201 201 201 204 210 213 218 219 215 215 212 208 209 213 216 216 213 211 206 203 202 198 192 189 189 186 184 186 187 184 183 179 172 164 157 153 147 144 142 140 141 139 137 137
129 90 99 107 33 343 256 196 111 109 77 301 105 342 286 241 247 254 223 156 136 155 188 200 206 209 213 214 209 211 208 196 194 200 202 200 200 200 200 199 196 195 193 193 194 193 195 196 197 196 197 199 200 201 202 202 205 212 216 218 217 215 217 216 211 208 209 213 213 213 212 206 202 203 200 195 192 191 188 186 188 188 186 184 177 172 165 156 153 150 147 144 142 141 139 138 138
118 80 69 94 95 282 288 278 130 129 296 13 87 185 263 270 278 269 202 164 147 176 213 219 219 221 220 218 214 218 213 202 201 204 203 203 202 202 202 199 198 197 193 191 193 195 197 198 198 200 201 204 205 205 206 207 209 213 219 220 215 214 215 218 218 211 205 207 211 210 209 207 204 203 201 197 194 192 191 189 190 189 187 184 176 170 166 160 158 156 153 149 143 141 139 137 137
78 98 317 338 134 242 307 316 151 151 264 31 91 204 266 277 285 287 197 156 155 187 224 233 231 228 221 221 215 216 222 213 209 207 204 204 204 203 203 202 200 199 196 194 194 195 197 200 202 204 206 208 210 210 210 212 212 213 217 220 217 215 213 214 216 214 207 203 205 205 207 209 207 204 201 198 195 194 194 193 192 191 188 185 177 171 169 166 161 156 156 155 148 142 139 136 136
356 98 203 235 136 200 295 318 217 143 130 3 103 217 270 276 278 294 280 179 175 204 231 234 232 230 220 217 216 211 220 223 218 214 207 204 206 207 206 206 205 203 202 199 197 197 199 202 206 208 209 209 210 211 209 210 209 209 212 215 216 216 214 213 213 213 209 203 202 203 205 207 206 202 200 199 198 197 197 196 194 192 190 186 178 173 170 166 160 156 154 156 153 145 140 136 134
298 63 189 229 160 161 213 287 286 107 105 252 224 225 252 265 271 283 279 222 198 221 237 239 233 232 224 214 218 214 209 217 220 215 209 204 206 209 209 209 209 208 206 204 203 203 203 204 207 208 209 209 210 209 207 206 204 204 207 210 213 213 214 215 214 213 209 206 205 204 204 204 204 203 200 200 200 199 199 198 196 192 189 185 178 173 168 163 162 161 156 156 156 150 143 139 135
194 182 182 249 173 148 188 220 259 112 111 226 195 239 258 267 272 267 262 228 207 226 234 239 238 233 228 214 215 217 210 217 221 215 210 206 206 207 208 208 208 207 205 204 205 206 206 206 207 208 209 209 210 210 206 205 203 203 204 206 209 211 212 214 215 215 211 208 206 204 205 204 204 203 202 202 202 202 199 198 196 191 188 183 176 170 165 163 162 163 159 156 156 153 149 143 139
170 173 152 164 149 151 226 210 277 137 126 239 214 224 255 265 273 268 260 233 210 232 241 242 246 239 233 223 219 218 216 224 225 216 209 206 206 205 205 205 204 202 201 201 202 205 205 205 206 207 209 211 210 207 204 204 203 204 205 206 208 210 213 215 214 215 214 212 209 206 204 202 203 204 204 205 205 204 201 197 193 189 187 183 176 171 167 166 165 165 163 160 155 150 148 146 143
138 123 106 136 134 122 258 230 302 94 122 250 231 238 258 261 269 267 267 256 223 231 242 246 245 241 234 228 230 224 222 230 225 215 207 202 202 202 201 200 197 196 197 199 200 202 205 205 205 206 208 211 210 208 205 203 203 203 205 207 210 211 213 214 211 212 215 215 214 215 213 209 208 209 209 207 205 203 200 195 191 188 187 183 179 175 169 166 167 167 164 162 159 152 148 148 149
90 104 96 74 110 159 230 209 290 339 114 266 293 295 270 260 262 264 267 267 245 223 224 239 240 238 237 231 236 234 233 232 203 199 197 195 197 196 197 195 194 193 194 198 200 202 204 206 207 207 207 209 211 212 210 207 207 206 205 207 210 212 212 212 210 210 214 215 216 218 220 219 217 215 212 208 205 202 197 193 190 189 186 181 176 171 168 167 167 168 164 161 161 158 153 153 154
75 85 95 65 111 160 305 317 293 7 126 271 351 348 280 269 260 259 255 247 250 231 217 233 236 237 240 228 232 236 238 229 179 178 185 190 193 191 192 194 196 198 196 198 201 202 203 206 208 207 208 210 212 214 215 213 211 209 209 210 212 213 211 209 209 209 210 212 213 214 215 215 214 212 209 207 204 201 198 194 191 189 186 182 175 169 169 170 170 172 169 165 162 159 158 158 159
80 94 107 182 231 130 285 303 285 282 120 266 335 325 280 281 279 267 257 243 251 253 238 241 237 233 235 226 225 224 223 216 185 180 184 186 188 188 191 195 196 198 198 199 201 202 204 206 208 207 208 211 212 214 216 215 211 208 211 215 217 215 211 207 206 206 206 208 208 207 208 208 208 209 208 206 203 200 199 196 192 189 186 183 178 173 172 173 174 176 174 171 166 160 160 163 165
1 115 129 173 148 121 162 292 326 354 1 351 351 329 288 301 323 288 281 278 262 263 260 255 247 238 239 237 233 224 215 203 181 184 189 183 186 190 193 195 195 197 199 201 203 204 206 208 210 210 209 211 212 213 214 212 208 205 205 207 209 208 207 203 201 204 206 206 205 204 205 205 205 207 207 205 201 197 196 196 194 190 186 183 181 179 178 177 179 180 179 179 175 169 166 167 171
329 223 157 166 143 124 106 23 29 30 347 320 28 357 294 309 322 285 296 327 291 293 303 270 257 237 229 233 232 228 218 199 182 185 188 186 188 190 192 194 195 197 201 204 205 208 210 211 213 212 210 210 212 214 214 214 209 205 202 198 196 196 198 200 202 205 207 206 206 204 203 203 203 204 203 201 199 196 194 195 194 190 186 183 182 181 179 179 181 184 185 184 182 178 170 168 173
243 226 173 148 121 108 91 59 55 68 271 284 67 104 270 302 299 267 274 284 277 291 301 273 264 240 221 228 224 219 203 183 191 192 184 186 186 185 191 195 197 199 202 205 207 210 212 213 213 213 213 212 214 216 216 215 211 208 206 204 203 201 200 203 207 210 212 212 209 206 203 201 200 200 199 197 196 196 194 193 192 190 187 184 182 181 181 183 185 187 190 189 187 183 176 173 176
213 229 152 123 102 110 115 94 94 194 250 320 17 126 241 290 268 253 258 268 278 285 275 266 267 252 235 241 230 216 201 182 186 192 184 187 187 188 194 197 200 202 203 204 207 209 211 213 213 214 216 216 217 217 216 216 213 210 210 210 211 213 213 213 213 215 216 213 210 206 202 199 197 197 196 195 195 196 195 193 192 190 187 185 184 185 186 187 188 189 191 191 190 187 185 183 181
237 225 137 118 111 124 119 97 93 15 40 323 315 103 232 270 267 273 265 254 274 271 258 261 267 250 237 239 220 210 214 188 179 187 186 190 193 195 198 199 201 203 205 207 208 210 212 213 214 215 216 217 217 216 216 217 216 213 214 214 215 218 221 221 221 220 216 210 206 204 201 197 195 195 195 196 197 197 197 196 194 191 189 187 187 188 189 190 192 192 192 193 193 192 192 192 189
213 164 89 66 73 81 78 94 99 33 35 260 258 200 217 267 272 287 43 202 257 262 259 262 265 253 232 192 156 159 156 137 154 175 184 191 197 199 199 199 201 204 207 209 209 210 210 211 212 214 215 216 216 216 217 217 216 215 217 218 219 219 219 220 221 217 210 206 204 201 200 197 194 193 194 196 198 198 198 197 196 194 192 191 190 190 192 192 194 196 196 197 197 196 195 196 197
124 90 62 41 28 38 42 65 82 53 295 256 241 205 200 283 278 248 192 209 232 236 267 276 267 248 209 186 181 175 156 123 124 144 173 187 193 194 194 196 200 203 206 208 208 208 208 210 212 213 214 215 216 216 217 217 216 216 218 220 221 219 217 216 214 210 204 201 202 202 201 198 195 195 193 193 197 199 199 199 199 198 194 193 193 194 196 197 197 199 200 200 201 201 199 198 199
89 82 79 60 353 13 19 3 45 88 258 261 265 236 177 244 266 257 256 264 244 193 196 230 228 221 214 214 212 198 193 171 129 131 155 167 173 180 185 191 196 199 202 204 205 206 207 209 210 211 213 215 216 217 217 216 215 216 218 220 222 221 217 216 213 209 205 202 203 203 202 200 198 197 194 192 195 198 200 200 200 199 196 196 197 198 200 201 202 202 202 203 204 204 202 200 200
75 91 94 91 343 11 2 324 22 223 249 258 289 321 211 236 250 259 273 280 262 211 200 206 206 214 225 224 215 199 191 188 175 159 161 166 169 176 181 187 192 196 200 202 203 205 207 209 210 211 213 215 216 217 217 216 215 216 218 219 221 221 219 218 217 214 211 209 208 206 203 201 200 199 197 195 195 197 199 201 201 200 199 200 201 203 204 204 204 204 204 206 206 206 205 204 204
129 135 127 133 134 101 255 272 284 259 262 268 298 302 259 277 270 243 247 255 251 238 231 210 189 202 223 222 204 192 191 190 191 187 181 186 188 185 186 189 192 196 200 201 203 205 206 207 209 212 215 217 218 218 218 216 215 216 217 218 220 220 218 219 219 218 216 214 213 210 208 206 204 202 201 200 200 199 200 202 203 203 203 203 205 206 206 207 208 207 207 208 207 207 208 208 208
171 159 133 144 158 158 196 214 207 242 276 286 295 269 207 220 271 248 242 261 275 271 258 235 211 224 222 195 176 175 192 200 201 206 208 210 204 197 195 195 196 199 201 202 204 205 205 206 209 212 215 216 218 219 219 218 216 216 215 216 219 219 218 219 220 221 221 219 215 213 212 211 210 208 206 205 203 202 202 203 205 206 207 206 207 207 208 208 209 210 209 208 207 207 208 209 209
243 145 110 159 187 147 146 184 178 172 298 293 262 237 212 209 269 270 260 268 280 288 294 301 287 285 291 163 176 179 201 205 202 213 222 223 214 207 205 203 203 203 203 205 205 205 206 207 209 213 216 218 219 220 220 220 219 217 215 215 217 218 217 218 220 222 224 223 220 218 217 218 218 216 212 209 206 204 205 206 206 208 209 208 208 209 210 210 209 209 207 206 205 205 206 207 207
208 139 169 220 179 119 119 227 7 92 254 270 216 249 282 321 288 277 271 267 267 279 296 298 281 281 284 238 199 187 213 209 202 211 217 218 214 213 213 210 208 207 206 207 209 209 210 210 211 214 218 220 221 222 222 222 220 217 216 216 218 218 217 217 220 221 222 223 222 223 225 226 224 221 217 214 210 208 208 208 208 208 209 209 210 210 211 211 209 208 206 204 203 203 203 204 204
125 168 217 214 104 84 107 176 350 51 253 273 234 247 280 318 278 303 349 332 280 252 257 264 271 276 272 263 230 202 218 211 207 216 220 217 212 215 217 216 214 212 212 212 212 213 214 215 216 216 218 220 221 223 223 224 222 218 217 217 219 219 218 218 220 222 223 223 223 226 228 229 227 225 222 219 214 211 210 209 209 209 209 209 210 211 210 210 208 207 205 204 203 201 201 201 202
126 180 195 117 116 223 111 151 198 151 246 279 277 263 256 214 227 267 305 309 298 237 235 242 256 258 254 263 265 254 239 216 211 219 222 216 213 217 218 218 218 217 216 217 216 216 216 218 220 220 223 224 225 225 225 225 224 221 219 218 219 220 219 220 220 221 224 225 226 227 227 227 226 225 224 222 218 214 211 211 210 210 210 210 210 211 210 209 207 206 204 203 203 201 200 199 199
26 66 111 89 132 174 169 163 167 155 201 262 300 303 255 221 201 190 228 255 248 235 235 230 237 243 241 247 261 264 245 220 217 217 219 218 217 221 220 220 220 218 218 219 218 219 219 219 221 222 224 226 226 227 227 226 226 224 221 220 219 220 220 221 220 221 224 227 227 226 224 223 223 224 224 223 221 217 214 212 212 211 211 210 211 211 210 209 207 206 205 203 202 202 202 200 199
163 146 187 207 89 111 161 173 144 137 158 206 282 290 264 239 191 179 203 233 237 225 218 222 235 244 246 242 243 247 235 227 226 219 219 223 223 224 224 222 221 219 219 220 220 221 221 222 223 222 223 223 225 227 228 228 227 225 223 221 220 220 220 221 221 222 225 227 227 225 223 223 223 225 225 224 223 220 218 216 214 213 212 211 212 211 210 209 207 206 206 205 204 202 202 201 199
175 179 190 184 152 125 148 243 262 125 154 179 172 278 274 245 177 194 204 218 234 214 191 209 236 246 250 247 239 235 228 222 224 222 222 226 227 226 223 222 221 219 218 219 220 221 221 224 225 224 223 224 224 226 227 228 228 226 224 222 222 222 222 221 220 222 225 226 226 224 222 222 223 225 226 227 225 222 220 219 216 214 213 213 213 212 210 209 208 207 206 205 204 203 202 201 199